Back to catalog

OPS 4682 DEB

AlivePO
NORAD 38364·DEBRIS·🇺🇸 United States

Launched Apr 3, 1965 from Vandenberg Space Force Base

Loading…

Next Passes (next 24 hours)

TLE

FreshSource: Space-Track

Epoch: Sep 13, 2026, 18:46 UTC

1 38364U 65027BR  26256.78225839  .00000581  00000-0  19988-2 0  9990
2 38364  90.2561  13.8821 0033654 239.8179 119.9606 12.96488713674055

Track OPS 4682 DEB in real time with AllMySat

Download on the App Store